SCP
-0 -0 -0 -0 0 0 0 0 0 0 0 0 0 0 0 -0 -0 -0 -0 -0 -0 -0 0 0 -0 0 0 0 0 0 -0 -0 -0 -0 -0 -0 -0 0 -0 0 0 -0 0 0 0 0 0
-0 0 0 0 0 0 0 0 0 0 0 0 0 0 0 0 -0 -0 -0 -0 -0 -0 0 -0 0 0 0 0 0 0 0 -0 -0 -0 -0 0 0 0 0 0 -0 0 0 0 0 0 0
-0 0 0 0 0 0 0 0 0 0 0 0 0 0 0 0 -0 -0 -0 -0 -0 0 0 0 0 0 0 0 0 0 0 -0 -0 -0 -0 0 0 0 0 0 0 0 0 0 0 0 0
-0 0 -0 -0 -0 -0 0 0 0 0 0 0 0 0 0 0 -0 0 0 0 0 0 0 0 0 0 0 0 0 0 0 0 -0 0 0 0 0 -0 0 0 0 -0 0 0 0 0 0
0 0 0 0 0 0 0 0 0 0 0 0 0 0 0 0 0 0 0 0 0 0 0 0 0 0 0 0 0 0 0 0 0 0 -0 0 0 0 0 0 0 -0 0 0 0 0 0
0 0 -0 -0 -0 -0 0 0 0 0 0 0 0 0 0 0 0 0 0 -0 0 -0 0 0 0 0 0 0 0 0 0 0 0 0 0 -0 0 0 0 0 -0 0 0 0 0 0 0
0 -0 -0 -0 -0 -0 -0 0 0 0 0 0 0 0 0 0 0 0 0 -0 -0 -0 0 0 0 0 0 0 0 0 0 0 0 -0 -0 -0 -0 -0 -0 0 0 0 0 0 0 0 0
0 -0 -0 -0 -0 -0 -0 -0 0 0 0 0 0 0 0 0 0 -0 -0 0 0 0 0 0 -0 0 0 0 0 0 0 0 0 -0 -0 0 -0 -0 0 0 0 0 0 0 0 0 0
-0 -0 -0 -0 -0 -0 -0 -0 -0 0 0 0 0 0 0 0 -0 -0 0 0 0 0 -0 0 0 0 0 0 0 0 0 0 0 0 -0 -0 0 0 0 0 0 0 -0 0 0 0 0
-0 -0 -0 -0 -0 -0 -0 -0 -0 -0 -0 0 0 0 0 0 -0 -0 -0 0 0 0 -0 -0 0 0 0 0 0 0 0 0 0 0 0 0 0 0 0 -0 0 -0 -0 0 0 0 0
0 0 0 -0 -0 -0 -0 -0 -0 -0 -0 0 0 0 0 -0 -0 -0 0 0 0 0 0 0 0 0 0 0 0 0 0 0 0 0 0 0 0 0 -0 -0 -0 0 0 0 0 0 0
0 0 0 -0 -0 -0 -0 -0 0 0 0 0 0 0 -0 -0 -0 0 0 0 0 0 0 0 0 0 0 0 0 0 0 0 0 0 0 0 0 0 0 0 0 0 0 0 0 0 0
0 0 0 0 0 0 0 0 0 0 0 0 0 0 -0 -0 -0 0 0 0 0 0 0 0 0 0 0 0 0 0 0 0 0 0 0 0 0 0 0 0 0 0 0 0 0 0 -0
0 0 0 0 0 0 0 0 0 0 0 0 0 0 0 0 0 0 0 0 0 0 0 0 0 0 0 0 0 0 0 0 0 0 0 0 0 0 0 0 0 0 0 0 0 0 0
0 0 0 0 0 0 0 0 0 0 0 0 0 0 0 0 0 -0 -0 0 0 0 0 0 0 0 0 0 0 0 0 0 0 0 0 0 0 0 0 0 0 0 0 0 0 0 0
0 0 0 0 0 0 0 0 0 0 0 0 0 0 0 0 0 -0 -0 0 0 0 0 0 0 0 0 0 0 0 0 0 0 0 0 0 0 0 0 0 0 0 0 0 0 -0 -0
0 0 0 0 0 0 0 0 0 0 0 0 0 0 0 0 -0 -0 0 0 0 0 0 0 0 0 0 0 0 0 0 0 0 0 0 0 0 0 0 0 0 0 0 0 0 0 -0
0 0 0 0 0 0 0 0 0 0 0 0 0 0 0 0 0 0 0 0 0 0 0 0 0 0 0 0 0 0 0 0 0 0 0 0 0 0 0 0 0 0 0 0 0 0 -0
0 0 0 0 0 0 0 0 0 0 0 0 0 0 0 0 0 0 0 0 0 0 0 0 0 0 0 0 0 0 0 0 0 0 0 0 0 0 0 0 0 0 0 0 0 0 0
0 0 0 0 0 0 0 0 0 0 0 0 0 0 0 0 0 0 0 0 0 -0 -0 0 0 0 0 0 0 0 0 0 0 0 0 0 0 0 0 0 0 0 0 0 0 0 0
0 0 0 0 0 0 0 0 0 0 0 0 0 0 0 0 0 0 0 0 0 0 0 0 0 0 0 0 0 0 0 0 0 0 0 0 0 0 0 0 0 0 0 0 0 0 0
0 0 0 0 0 0 0 0 0 0 0 0 0 0 0 0 0 0 0 0 0 -0 -0 0 0 0 0 0 0 0 0 0 0 0 0 0 0 0 0 0 0 0 0 0 0 0 0
0 0 0 0 0 0 0 0 0 0 0 0 0 0 0 0 0 0 0 0 -0 -0 0 -0 -0 0 0 0 0 0 0 0 0 0 0 0 0 0 0 0 0 0 0 0 0 0 0
0 0 0 0 0 0 0 0 0 0 0 0 0 0 0 0 0 0 0 -0 -0 0 0 -0 -0 -0 0 0 0 0 0 0 0 0 0 0 0 0 0 0 0 0 0 0 0 0 0
0 0 0 0 0 0 0 0 0 0 0 0 0 0 0 0 0 0 0 0 0 -0 -0 -0 -0 -0 0 0 0 0 0 0 0 0 0 0 0 0 0 0 0 0 0 0 0 0 0
0 0 0 0 0 0 0 0 0 0 0 0 0 0 0 0 0 0 0 0 0 -0 -0 -0 0 0 -0 0 0 0 0 0 0 0 -0 0 0 0 0 0 0 0 0 0 0 0 0
0 0 0 0 0 0 0 0 0 0 0 0 0 0 0 0 0 0 0 0 0 0 0 0 0 0 0 -0 0 0 0 0 0 0 0 0 -0 0 0 0 0 0 0 0 0 0 0
0 0 0 0 0 0 0 0 0 0 0 0 0 0 0 0 0 0 0 0 0 0 0 -0 0 -0 -0 0 0 0 0 0 0 0 0 0 0 -0 0 0 0 0 0 0 0 0 0
0 0 0 0 0 0 0 0 0 0 0 0 0 0 0 0 0 0 0 -0 -0 -0 0 0 0 0 0 -0 0 0 0 0 0 0 0 0 0 0 0 0 0 0 0 0 0 0 0
Wind_Speed_500mb
40 40 42 43 43 44 44 45 45 45 45 45 46 46 47 46 46 48 48 51 47 44 42 41 39 32 22 19 35 15 16 1 36 58 58 59 58 53 36 34 25 35 18 13 21 17 16
42 42 44 45 46 46 47 47 48 49 49 50 50 52 54 49 49 51 55 49 48 42 38 39 38 30 21 31 23 25 39 26 43 59 59 58 57 46 28 24 33 15 33 23 22 25 22
44 44 46 46 47 48 48 49 50 50 51 52 54 55 57 57 54 56 56 47 50 39 33 34 34 29 29 47 26 20 27 35 47 56 62 58 39 50 18 25 27 27 22 25 30 26 18
45 47 48 49 50 52 52 52 53 53 53 55 58 59 60 61 57 55 52 48 46 32 21 23 26 25 24 22 41 27 30 37 40 41 46 47 26 54 25 6 14 30 33 29 35 35 28
45 47 50 52 53 54 56 56 56 56 57 59 62 63 62 64 63 53 49 46 40 31 17 8 13 19 15 25 37 45 37 41 46 38 41 40 37 43 45 28 26 27 28 38 26 25 18
48 51 53 54 54 54 55 56 57 58 59 59 62 66 65 64 65 46 43 45 34 27 7 3 7 13 25 11 19 49 40 32 53 44 37 42 38 31 34 34 37 36 36 34 33 25 28
47 48 50 50 52 53 54 55 57 58 60 61 64 66 67 63 61 32 45 27 16 8 13 22 7 13 2 9 18 36 63 46 48 55 38 50 37 50 54 46 36 36 38 39 35 29 25
45 47 49 51 52 54 55 57 58 59 62 65 66 66 64 62 48 40 26 11 15 17 35 40 53 60 39 6 22 34 69 51 56 54 47 34 52 46 43 41 40 42 38 40 31 21 17
47 50 52 54 56 57 58 60 61 62 65 66 66 65 66 63 32 40 21 17 25 28 19 30 33 41 39 49 28 51 79 71 53 56 62 52 26 46 44 44 45 47 47 43 34 24 30
48 51 53 55 56 57 57 59 61 62 63 63 64 62 63 58 20 38 12 38 32 19 12 15 16 12 31 35 28 44 78 77 37 58 57 55 42 42 48 51 46 49 48 40 38 32 30
48 50 52 53 53 54 56 58 59 60 60 62 62 58 55 43 36 22 40 43 27 4 13 15 15 13 16 43 14 54 65 74 46 46 52 44 53 45 54 53 50 42 36 34 41 34 36
50 51 52 52 54 57 60 63 66 67 67 64 62 54 42 34 26 34 48 41 3 13 19 9 11 14 18 34 19 25 57 66 58 46 51 54 34 48 44 37 42 30 31 26 33 34 40
49 47 49 55 59 61 63 64 64 65 66 66 61 48 27 31 33 49 44 16 13 18 10 9 12 8 16 20 37 26 54 61 43 47 58 52 56 37 38 42 39 45 34 18 21 30 39
45 50 53 55 55 57 59 61 64 66 68 67 61 42 19 30 43 47 26 17 24 6 24 35 22 35 24 12 23 36 37 51 64 51 32 39 41 59 50 56 38 54 45 21 31 28 32
48 47 48 52 54 55 56 59 61 63 66 66 56 27 18 37 40 31 21 17 14 23 27 27 37 19 21 11 10 23 41 43 64 56 50 43 53 58 39 42 50 48 50 54 7 6 17
44 46 49 49 49 50 53 56 58 60 63 62 47 19 21 45 31 17 17 13 18 22 35 27 28 13 15 11 16 13 27 11 33 65 3 31 36 38 52 52 49 41 51 42 28 30 36
44 46 45 44 45 48 52 55 58 61 62 58 31 16 27 38 22 18 10 16 23 31 27 21 29 26 22 20 18 10 5 15 16 8 15 30 27 44 44 50 49 44 32 44 36 33 22
43 44 44 44 46 47 49 53 56 60 63 46 29 11 32 35 8 11 13 17 25 25 30 23 20 25 26 23 19 7 7 20 20 12 24 22 19 22 49 47 51 56 47 54 28 45 36
41 42 44 45 46 46 48 51 53 55 58 43 28 15 26 27 12 14 18 16 17 23 22 23 20 24 26 27 11 5 3 9 24 20 4 5 26 29 32 38 45 59 57 50 49 31 42
41 43 44 46 45 46 47 47 49 49 48 34 21 10 14 12 7 21 22 21 19 17 12 34 17 28 34 28 22 11 8 10 19 20 17 13 26 42 38 36 33 51 58 55 54 39 36
42 44 44 45 47 46 45 44 43 44 42 25 13 11 12 14 20 25 24 23 21 18 22 23 9 22 21 13 20 20 14 22 4 17 17 15 24 14 24 8 10 23 55 57 59 53 50
42 43 44 44 46 48 47 45 42 42 39 15 15 11 10 29 24 23 10 12 21 23 24 20 18 22 13 17 19 18 23 17 12 16 18 12 6 10 26 20 16 22 28 29 40 46 51
44 44 45 47 48 50 49 46 40 37 35 13 11 11 8 13 20 19 13 20 28 28 18 11 27 28 28 13 23 30 34 35 31 25 19 13 12 13 28 18 20 30 43 41 37 39 35
44 47 48 51 51 52 52 50 45 33 40 28 20 15 8 9 13 21 29 32 25 26 25 37 34 28 16 30 36 41 42 41 30 27 24 16 14 16 13 14 29 20 17 38 49 42 42
46 49 52 54 54 56 56 53 51 43 37 35 33 18 10 7 21 29 24 20 28 29 35 28 30 18 22 28 20 19 21 19 29 29 28 26 18 13 22 26 20 14 11 15 23 33 35
51 53 55 59 59 60 59 55 54 49 40 37 38 36 19 10 12 15 31 29 21 19 23 19 13 21 17 14 10 15 11 5 7 15 28 27 25 18 16 32 32 9 32 21 9 20 23
55 58 58 62 64 62 60 58 54 51 42 37 42 42 28 17 29 15 12 16 19 18 14 21 18 13 13 16 12 11 17 7 15 24 16 27 26 30 27 26 18 26 14 8 26 10 16
60 63 63 65 64 62 60 59 53 48 45 32 41 35 42 18 39 39 35 35 33 28 15 12 17 11 8 7 8 10 15 11 21 26 22 21 24 26 30 37 46 24 24 25 23 29 29
64 65 65 65 64 62 62 61 51 57 41 27 38 40 36 41 28 40 49 49 51 50 42 14 17 14 7 7 5 6 9 7 15 20 20 30 26 23 24 25 26 25 33 35 32 44 42
Wind_Direction_500mb
23 23 20 19 18 17 14 11 9 6 2 358 354 349 344 342 336 329 322 316 309 304 294 281 273 272 271 247 244 264 197 77 176 173 186 187 192 198 207 200 201 224 240 232 241 255 263
22 23 21 17 16 15 12 11 8 5 1 357 353 348 343 343 338 332 325 318 317 310 289 272 262 258 238 248 254 240 239 236 183 179 188 192 197 200 227 219 215 196 231 244 249 246 245
21 20 17 17 15 13 10 8 6 4 0 356 353 350 347 343 338 332 328 320 322 315 293 264 252 243 237 240 242 231 195 194 184 186 187 194 197 196 198 216 218 236 241 236 233 231 229
19 18 17 16 12 10 9 8 7 4 359 355 351 351 350 346 341 335 330 324 322 320 308 259 243 225 245 262 229 225 192 188 191 194 199 194 202 204 221 213 213 223 230 239 228 212 218
20 18 16 16 14 12 9 7 6 3 358 354 349 349 350 348 343 335 332 328 321 315 321 267 213 196 250 241 224 199 189 187 182 184 194 194 205 217 218 232 229 214 230 213 183 191 193
19 17 15 14 12 9 7 5 3 1 357 353 349 347 348 348 344 334 339 332 321 324 326 291 202 212 232 223 199 193 188 179 175 171 174 195 204 212 219 210 218 212 221 241 213 188 218
17 14 12 10 8 6 5 3 2 0 356 353 350 347 344 349 347 338 343 343 323 254 264 243 256 252 266 208 168 188 187 171 176 179 186 192 200 208 208 217 228 239 224 227 219 226 242
13 11 9 8 7 5 3 2 0 358 355 353 352 348 346 349 350 342 5 57 51 333 299 268 251 242 232 251 208 187 176 177 186 191 194 183 215 213 217 213 222 231 232 231 240 207 248
11 10 8 7 5 3 2 359 358 357 354 352 354 350 348 352 352 1 35 34 336 333 265 281 235 236 226 211 219 184 184 189 190 193 198 205 211 213 210 213 215 225 229 232 237 218 239
10 9 7 5 2 0 358 356 357 357 354 353 353 350 349 354 11 359 349 334 324 319 277 200 204 229 189 192 222 203 197 190 196 203 202 220 208 200 211 218 210 226 217 239 245 240 247
8 6 4 2 1 359 358 357 356 356 354 352 353 350 350 354 343 353 330 328 319 225 273 99 134 164 171 192 133 190 194 202 212 205 199 206 214 201 210 213 215 233 230 218 237 243 246
6 4 3 2 1 359 357 356 354 353 353 353 351 349 348 350 347 331 329 327 265 228 236 136 132 181 177 212 212 160 187 203 219 220 212 224 206 214 219 213 220 216 221 226 228 233 241
5 5 5 3 1 359 358 356 353 352 352 352 352 348 344 346 332 331 332 318 231 239 77 54 1 0 283 211 212 188 194 197 204 205 214 211 221 215 214 212 203 196 194 189 209 217 237
7 8 5 2 360 358 357 355 354 354 352 352 354 351 341 350 337 334 331 247 244 29 15 341 317 293 242 187 227 200 191 208 214 209 194 209 218 206 202 207 193 196 202 211 210 216 227
7 4 1 359 358 356 356 356 355 354 353 351 356 351 8 339 337 334 305 249 290 18 345 322 310 274 190 200 293 216 217 216 204 212 229 199 224 184 205 201 202 194 213 215 244 201 272
3 1 359 357 354 355 358 358 356 356 358 356 353 344 354 343 337 325 270 330 353 347 333 319 299 352 310 351 278 220 187 14 225 213 320 257 219 182 196 200 206 204 207 212 229 241 238
4 1 357 358 357 356 357 357 357 357 358 2 356 324 344 347 347 311 356 349 325 326 339 317 322 309 310 308 308 275 88 44 0 316 256 251 240 192 183 201 190 200 201 213 223 233 221
6 360 356 3 1 357 355 353 356 357 358 2 356 328 341 359 344 349 1 333 322 316 333 305 293 283 294 309 293 274 136 22 348 279 212 213 235 206 202 198 214 203 205 200 213 212 241
3 1 358 1 5 1 356 351 352 357 0 355 345 317 341 7 7 357 345 318 329 333 353 342 305 346 302 289 281 324 359 44 4 11 15 178 223 213 203 205 203 214 205 210 218 230 214
355 355 355 356 359 1 359 352 348 352 359 2 340 328 353 342 20 338 351 334 330 343 329 338 6 336 314 256 247 289 339 24 349 11 324 254 244 226 219 207 207 217 206 215 211 222 227
350 349 353 354 352 354 354 353 345 347 353 12 357 20 353 324 343 331 327 308 322 352 350 327 127 25 355 297 305 254 337 315 276 7 336 331 221 231 246 291 280 242 213 216 217 223 228
344 344 348 349 350 348 349 350 347 343 348 351 338 338 313 296 314 303 315 319 331 348 321 318 331 333 331 312 315 308 327 327 318 342 328 332 209 246 246 222 234 234 227 236 235 235 236
339 339 342 341 343 342 341 342 339 336 336 308 304 301 287 269 302 307 327 324 325 317 301 264 320 317 309 314 298 289 289 285 280 289 302 288 287 242 227 200 258 244 225 221 226 227 231
333 332 334 334 336 335 333 331 328 313 323 286 283 278 245 269 300 291 297 291 295 287 288 296 300 294 319 311 293 273 259 259 260 256 242 269 243 256 255 187 238 252 206 212 223 231 230
327 327 328 328 329 329 326 325 321 315 299 295 280 253 232 256 294 291 289 300 299 298 278 284 293 294 294 290 278 265 234 227 233 233 223 221 251 253 236 227 276 241 163 219 212 229 232
325 324 325 325 325 324 323 321 318 311 297 297 275 267 246 277 247 261 301 292 290 290 289 264 292 277 279 273 254 256 248 283 208 187 208 212 218 236 229 239 234 241 230 213 173 250 247
322 323 325 322 323 324 322 320 320 312 300 283 284 272 237 251 272 263 257 282 287 281 278 296 310 271 259 252 249 239 248 246 257 234 176 200 212 223 228 249 250 263 77 51 193 80 55
321 322 323 322 324 324 322 321 321 315 312 293 277 269 246 237 264 269 267 258 265 249 256 294 307 225 237 256 268 236 248 220 250 250 250 209 201 222 233 242 240 259 282 236 1 331 325
322 322 324 324 325 324 324 322 321 324 314 296 274 272 263 235 253 281 279 268 256 251 250 232 246 304 266 272 265 305 262 270 263 260 217 245 254 258 224 234 273 284 247 289 318 308 309
Wind_Speed_850mb
40 40 42 43 43 44 44 45 45 45 45 45 46 46 47 46 46 48 48 51 47 44 42 41 39 32 22 19 35 15 16 1 36 58 58 59 58 53 36 34 25 35 18 13 21 17 16
42 42 44 45 46 46 47 47 48 49 49 50 50 52 54 49 49 51 55 49 48 42 38 39 38 30 21 31 23 25 39 26 43 59 59 58 57 46 28 24 33 15 33 23 22 25 22
44 44 46 46 47 48 48 49 50 50 51 52 54 55 57 57 54 56 56 47 50 39 33 34 34 29 29 47 26 20 27 35 47 56 62 58 39 50 18 25 27 27 22 25 30 26 18
45 47 48 49 50 52 52 52 53 53 53 55 58 59 60 61 57 55 52 48 46 32 21 23 26 25 24 22 41 27 30 37 40 41 46 47 26 54 25 6 14 30 33 29 35 35 28
45 47 50 52 53 54 56 56 56 56 57 59 62 63 62 64 63 53 49 46 40 31 17 8 13 19 15 25 37 45 37 41 46 38 41 40 37 43 45 28 26 27 28 38 26 25 18
48 51 53 54 54 54 55 56 57 58 59 59 62 66 65 64 65 46 43 45 34 27 7 3 7 13 25 11 19 49 40 32 53 44 37 42 38 31 34 34 37 36 36 34 33 25 28
47 48 50 50 52 53 54 55 57 58 60 61 64 66 67 63 61 32 45 27 16 8 13 22 7 13 2 9 18 36 63 46 48 55 38 50 37 50 54 46 36 36 38 39 35 29 25
45 47 49 51 52 54 55 57 58 59 62 65 66 66 64 62 48 40 26 11 15 17 35 40 53 60 39 6 22 34 69 51 56 54 47 34 52 46 43 41 40 42 38 40 31 21 17
47 50 52 54 56 57 58 60 61 62 65 66 66 65 66 63 32 40 21 17 25 28 19 30 33 41 39 49 28 51 79 71 53 56 62 52 26 46 44 44 45 47 47 43 34 24 30
48 51 53 55 56 57 57 59 61 62 63 63 64 62 63 58 20 38 12 38 32 19 12 15 16 12 31 35 28 44 78 77 37 58 57 55 42 42 48 51 46 49 48 40 38 32 30
48 50 52 53 53 54 56 58 59 60 60 62 62 58 55 43 36 22 40 43 27 4 13 15 15 13 16 43 14 54 65 74 46 46 52 44 53 45 54 53 50 42 36 34 41 34 36
50 51 52 52 54 57 60 63 66 67 67 64 62 54 42 34 26 34 48 41 3 13 19 9 11 14 18 34 19 25 57 66 58 46 51 54 34 48 44 37 42 30 31 26 33 34 40
49 47 49 55 59 61 63 64 64 65 66 66 61 48 27 31 33 49 44 16 13 18 10 9 12 8 16 20 37 26 54 61 43 47 58 52 56 37 38 42 39 45 34 18 21 30 39
45 50 53 55 55 57 59 61 64 66 68 67 61 42 19 30 43 47 26 17 24 6 24 35 22 35 24 12 23 36 37 51 64 51 32 39 41 59 50 56 38 54 45 21 31 28 32
48 47 48 52 54 55 56 59 61 63 66 66 56 27 18 37 40 31 21 17 14 23 27 27 37 19 21 11 10 23 41 43 64 56 50 43 53 58 39 42 50 48 50 54 7 6 17
44 46 49 49 49 50 53 56 58 60 63 62 47 19 21 45 31 17 17 13 18 22 35 27 28 13 15 11 16 13 27 11 33 65 3 31 36 38 52 52 49 41 51 42 28 30 36
44 46 45 44 45 48 52 55 58 61 62 58 31 16 27 38 22 18 10 16 23 31 27 21 29 26 22 20 18 10 5 15 16 8 15 30 27 44 44 50 49 44 32 44 36 33 22
43 44 44 44 46 47 49 53 56 60 63 46 29 11 32 35 8 11 13 17 25 25 30 23 20 25 26 23 19 7 7 20 20 12 24 22 19 22 49 47 51 56 47 54 28 45 36
41 42 44 45 46 46 48 51 53 55 58 43 28 15 26 27 12 14 18 16 17 23 22 23 20 24 26 27 11 5 3 9 24 20 4 5 26 29 32 38 45 59 57 50 49 31 42
41 43 44 46 45 46 47 47 49 49 48 34 21 10 14 12 7 21 22 21 19 17 12 34 17 28 34 28 22 11 8 10 19 20 17 13 26 42 38 36 33 51 58 55 54 39 36
42 44 44 45 47 46 45 44 43 44 42 25 13 11 12 14 20 25 24 23 21 18 22 23 9 22 21 13 20 20 14 22 4 17 17 15 24 14 24 8 10 23 55 57 59 53 50
42 43 44 44 46 48 47 45 42 42 39 15 15 11 10 29 24 23 10 12 21 23 24 20 18 22 13 17 19 18 23 17 12 16 18 12 6 10 26 20 16 22 28 29 40 46 51
44 44 45 47 48 50 49 46 40 37 35 13 11 11 8 13 20 19 13 20 28 28 18 11 27 28 28 13 23 30 34 35 31 25 19 13 12 13 28 18 20 30 43 41 37 39 35
44 47 48 51 51 52 52 50 45 33 40 28 20 15 8 9 13 21 29 32 25 26 25 37 34 28 16 30 36 41 42 41 30 27 24 16 14 16 13 14 29 20 17 38 49 42 42
46 49 52 54 54 56 56 53 51 43 37 35 33 18 10 7 21 29 24 20 28 29 35 28 30 18 22 28 20 19 21 19 29 29 28 26 18 13 22 26 20 14 11 15 23 33 35
51 53 55 59 59 60 59 55 54 49 40 37 38 36 19 10 12 15 31 29 21 19 23 19 13 21 17 14 10 15 11 5 7 15 28 27 25 18 16 32 32 9 32 21 9 20 23
55 58 58 62 64 62 60 58 54 51 42 37 42 42 28 17 29 15 12 16 19 18 14 21 18 13 13 16 12 11 17 7 15 24 16 27 26 30 27 26 18 26 14 8 26 10 16
60 63 63 65 64 62 60 59 53 48 45 32 41 35 42 18 39 39 35 35 33 28 15 12 17 11 8 7 8 10 15 11 21 26 22 21 24 26 30 37 46 24 24 25 23 29 29
64 65 65 65 64 62 62 61 51 57 41 27 38 40 36 41 28 40 49 49 51 50 42 14 17 14 7 7 5 6 9 7 15 20 20 30 26 23 24 25 26 25 33 35 32 44 42
Wind_Direction_850mb
23 23 20 19 18 17 14 11 9 6 2 358 354 349 344 342 336 329 322 316 309 304 294 281 273 272 271 247 244 264 197 77 176 173 186 187 192 198 207 200 201 224 240 232 241 255 263
22 23 21 17 16 15 12 11 8 5 1 357 353 348 343 343 338 332 325 318 317 310 289 272 262 258 238 248 254 240 239 236 183 179 188 192 197 200 227 219 215 196 231 244 249 246 245
21 20 17 17 15 13 10 8 6 4 0 356 353 350 347 343 338 332 328 320 322 315 293 264 252 243 237 240 242 231 195 194 184 186 187 194 197 196 198 216 218 236 241 236 233 231 229
19 18 17 16 12 10 9 8 7 4 359 355 351 351 350 346 341 335 330 324 322 320 308 259 243 225 245 262 229 225 192 188 191 194 199 194 202 204 221 213 213 223 230 239 228 212 218
20 18 16 16 14 12 9 7 6 3 358 354 349 349 350 348 343 335 332 328 321 315 321 267 213 196 250 241 224 199 189 187 182 184 194 194 205 217 218 232 229 214 230 213 183 191 193
19 17 15 14 12 9 7 5 3 1 357 353 349 347 348 348 344 334 339 332 321 324 326 291 202 212 232 223 199 193 188 179 175 171 174 195 204 212 219 210 218 212 221 241 213 188 218
17 14 12 10 8 6 5 3 2 0 356 353 350 347 344 349 347 338 343 343 323 254 264 243 256 252 266 208 168 188 187 171 176 179 186 192 200 208 208 217 228 239 224 227 219 226 242
13 11 9 8 7 5 3 2 0 358 355 353 352 348 346 349 350 342 5 57 51 333 299 268 251 242 232 251 208 187 176 177 186 191 194 183 215 213 217 213 222 231 232 231 240 207 248
11 10 8 7 5 3 2 359 358 357 354 352 354 350 348 352 352 1 35 34 336 333 265 281 235 236 226 211 219 184 184 189 190 193 198 205 211 213 210 213 215 225 229 232 237 218 239
10 9 7 5 2 0 358 356 357 357 354 353 353 350 349 354 11 359 349 334 324 319 277 200 204 229 189 192 222 203 197 190 196 203 202 220 208 200 211 218 210 226 217 239 245 240 247
8 6 4 2 1 359 358 357 356 356 354 352 353 350 350 354 343 353 330 328 319 225 273 99 134 164 171 192 133 190 194 202 212 205 199 206 214 201 210 213 215 233 230 218 237 243 246
6 4 3 2 1 359 357 356 354 353 353 353 351 349 348 350 347 331 329 327 265 228 236 136 132 181 177 212 212 160 187 203 219 220 212 224 206 214 219 213 220 216 221 226 228 233 241
5 5 5 3 1 359 358 356 353 352 352 352 352 348 344 346 332 331 332 318 231 239 77 54 1 0 283 211 212 188 194 197 204 205 214 211 221 215 214 212 203 196 194 189 209 217 237
7 8 5 2 360 358 357 355 354 354 352 352 354 351 341 350 337 334 331 247 244 29 15 341 317 293 242 187 227 200 191 208 214 209 194 209 218 206 202 207 193 196 202 211 210 216 227
7 4 1 359 358 356 356 356 355 354 353 351 356 351 8 339 337 334 305 249 290 18 345 322 310 274 190 200 293 216 217 216 204 212 229 199 224 184 205 201 202 194 213 215 244 201 272
3 1 359 357 354 355 358 358 356 356 358 356 353 344 354 343 337 325 270 330 353 347 333 319 299 352 310 351 278 220 187 14 225 213 320 257 219 182 196 200 206 204 207 212 229 241 238
4 1 357 358 357 356 357 357 357 357 358 2 356 324 344 347 347 311 356 349 325 326 339 317 322 309 310 308 308 275 88 44 0 316 256 251 240 192 183 201 190 200 201 213 223 233 221
6 360 356 3 1 357 355 353 356 357 358 2 356 328 341 359 344 349 1 333 322 316 333 305 293 283 294 309 293 274 136 22 348 279 212 213 235 206 202 198 214 203 205 200 213 212 241
3 1 358 1 5 1 356 351 352 357 0 355 345 317 341 7 7 357 345 318 329 333 353 342 305 346 302 289 281 324 359 44 4 11 15 178 223 213 203 205 203 214 205 210 218 230 214
355 355 355 356 359 1 359 352 348 352 359 2 340 328 353 342 20 338 351 334 330 343 329 338 6 336 314 256 247 289 339 24 349 11 324 254 244 226 219 207 207 217 206 215 211 222 227
350 349 353 354 352 354 354 353 345 347 353 12 357 20 353 324 343 331 327 308 322 352 350 327 127 25 355 297 305 254 337 315 276 7 336 331 221 231 246 291 280 242 213 216 217 223 228
344 344 348 349 350 348 349 350 347 343 348 351 338 338 313 296 314 303 315 319 331 348 321 318 331 333 331 312 315 308 327 327 318 342 328 332 209 246 246 222 234 234 227 236 235 235 236
339 339 342 341 343 342 341 342 339 336 336 308 304 301 287 269 302 307 327 324 325 317 301 264 320 317 309 314 298 289 289 285 280 289 302 288 287 242 227 200 258 244 225 221 226 227 231
333 332 334 334 336 335 333 331 328 313 323 286 283 278 245 269 300 291 297 291 295 287 288 296 300 294 319 311 293 273 259 259 260 256 242 269 243 256 255 187 238 252 206 212 223 231 230
327 327 328 328 329 329 326 325 321 315 299 295 280 253 232 256 294 291 289 300 299 298 278 284 293 294 294 290 278 265 234 227 233 233 223 221 251 253 236 227 276 241 163 219 212 229 232
325 324 325 325 325 324 323 321 318 311 297 297 275 267 246 277 247 261 301 292 290 290 289 264 292 277 279 273 254 256 248 283 208 187 208 212 218 236 229 239 234 241 230 213 173 250 247
322 323 325 322 323 324 322 320 320 312 300 283 284 272 237 251 272 263 257 282 287 281 278 296 310 271 259 252 249 239 248 246 257 234 176 200 212 223 228 249 250 263 77 51 193 80 55
321 322 323 322 324 324 322 321 321 315 312 293 277 269 246 237 264 269 267 258 265 249 256 294 307 225 237 256 268 236 248 220 250 250 250 209 201 222 233 242 240 259 282 236 1 331 325
322 322 324 324 325 324 324 322 321 324 314 296 274 272 263 235 253 281 279 268 256 251 250 232 246 304 266 272 265 305 262 270 263 260 217 245 254 258 224 234 273 284 247 289 318 308 309